Wetbulb
53.68 53.74 53.67 53.58 53.76 53.59 53.51 53.74 53.76 53.88 54.20 54.23 54.32 54.34 54.21 54.40 54.74 49.51 43.94 50.04 53.15 57.35 60.41 55.05 54.35 53.24 50.04 48.04 52.38 51.90 42.11 40.92 42.45 43.28 43.49 46.45 43.56 48.72 50.79 50.93 51.26 53.05 52.80 58.01 69.34
53.09 53.15 53.23 53.10 52.99 52.94 53.10 53.39 53.61 53.33 53.50 53.85 53.85 53.91 53.66 54.18 48.92 46.19 53.16 59.49 61.10 62.82 56.04 52.33 51.00 52.08 44.66 44.92 46.41 47.59 43.50 44.06 47.90 47.32 46.04 47.96 48.35 49.51 48.72 47.97 48.46 50.69 53.56 66.99 70.82
52.86 52.95 52.75 52.45 52.68 52.52 52.79 53.02 53.19 53.47 53.54 53.52 53.40 53.09 53.16 52.26 43.95 47.25 63.13 63.21 63.58 63.29 54.93 54.17 53.58 49.78 45.04 45.07 45.30 44.58 44.83 48.85 48.87 50.45 50.48 49.58 49.86 51.30 49.34 44.61 47.63 48.45 50.45 54.94 64.64
52.64 52.69 52.49 52.17 52.37 52.47 52.72 53.10 53.15 53.47 53.32 53.35 52.96 53.08 53.16 49.11 34.83 55.65 61.81 64.41 65.39 60.82 54.12 50.42 49.71 43.84 41.29 43.75 46.66 41.96 47.29 49.15 49.93 51.84 50.66 48.05 50.06 49.64 49.47 48.79 51.11 51.26 51.62 52.33 54.78
52.12 52.30 52.03 52.99 53.05 53.40 53.56 53.34 53.18 53.02 53.00 53.05 52.88 53.15 49.06 42.08 42.98 53.52 61.73 60.61 57.86 55.95 51.25 48.96 45.47 44.96 41.15 42.28 45.31 45.56 45.41 47.48 49.42 49.60 49.96 51.49 50.15 49.40 49.78 51.86 51.25 51.86 52.08 51.08 50.54
51.46 51.65 51.67 51.91 52.69 53.00 53.04 53.08 53.10 53.30 53.06 52.69 53.32 53.46 46.11 36.34 49.37 52.52 52.23 51.42 56.74 52.84 50.23 49.17 46.99 48.38 44.95 44.98 43.83 46.80 48.11 48.87 49.03 49.22 50.32 49.73 49.74 48.95 51.07 52.41 52.05 51.14 50.66 50.96 60.35
52.27 52.18 52.19 52.21 52.43 52.52 53.20 52.82 52.68 53.20 53.36 53.62 53.81 51.46 44.13 40.69 51.35 51.41 49.61 49.00 56.08 56.25 52.96 53.07 52.26 49.37 47.67 44.98 49.87 48.98 45.24 47.19 48.26 49.92 48.96 50.48 47.71 48.41 50.84 51.58 50.67 50.97 50.20 52.01 55.34
52.54 52.39 52.53 52.53 52.37 52.41 53.36 53.38 53.13 53.65 53.74 53.98 53.80 48.76 40.38 50.31 51.06 49.61 49.97 48.73 51.40 52.65 54.31 53.54 54.09 50.90 48.90 51.00 50.26 45.68 43.84 40.06 46.29 47.94 49.63 48.21 43.89 50.10 51.23 49.79 49.84 50.59 50.99 51.60 51.98
52.37 52.20 52.28 52.68 52.95 53.24 53.24 52.97 53.88 55.17 55.26 53.68 50.03 45.41 40.12 54.12 50.09 51.83 51.03 47.76 49.26 50.05 50.33 53.32 48.33 44.97 47.30 45.59 42.24 42.25 37.84 39.21 42.12 47.55 48.17 46.81 44.74 49.22 51.39 50.69 49.14 49.13 50.01 50.75 50.32
52.18 52.06 51.95 52.22 52.82 52.93 52.60 52.85 53.71 54.71 52.56 53.18 51.84 43.17 45.87 45.56 49.70 50.17 50.15 49.10 48.38 47.13 46.00 45.15 42.29 38.99 40.47 40.19 34.93 37.80 38.24 40.15 40.63 45.26 46.63 45.36 45.38 48.80 50.69 50.86 49.84 50.01 49.71 50.68 50.54
52.45 52.06 51.95 52.31 52.62 52.18 50.15 46.04 41.81 40.12 43.57 40.47 42.03 43.52 44.88 47.94 49.89 47.62 49.54 47.18 46.14 43.34 39.47 41.77 36.64 33.72 37.64 42.10 43.44 43.14 41.13 39.70 42.91 46.33 44.25 44.18 44.90 47.50 49.55 49.97 48.74 49.95 50.32 50.43 51.60
52.43 52.22 52.27 52.35 52.29 51.87 48.96 43.58 43.26 43.05 37.84 44.99 46.48 46.16 47.47 47.83 44.39 48.45 52.04 42.50 40.77 36.31 40.71 37.77 35.06 40.09 41.60 41.05 40.28 41.02 40.10 40.27 43.94 46.19 44.82 44.06 43.96 47.25 48.65 49.59 50.10 48.86 50.27 50.74 51.53
51.58 51.67 51.96 52.22 51.67 49.76 46.42 45.61 48.78 48.43 36.85 42.93 47.82 46.76 46.66 49.14 44.92 45.42 48.85 46.68 41.17 36.44 36.72 34.07 37.97 43.74 41.90 39.58 38.10 38.12 38.89 39.88 39.98 44.04 45.37 43.98 41.87 44.85 48.27 50.38 50.80 51.29 50.95 51.95 51.83
51.32 51.31 51.71 51.43 47.45 47.61 44.74 49.77 48.65 48.94 32.18 39.55 42.77 45.48 47.91 48.67 43.64 49.92 50.10 46.39 43.14 35.63 37.16 36.79 40.39 40.90 39.58 38.86 39.73 34.37 41.35 42.19 41.90 40.03 34.81 43.37 33.90 41.96 46.14 47.98 49.91 50.49 49.11 51.40 51.91
50.98 51.37 51.38 50.90 45.74 44.36 46.91 51.04 49.49 46.01 22.04 40.80 42.33 50.16 47.30 44.20 46.56 46.81 51.78 47.16 40.26 40.44 38.80 35.99 39.24 38.79 37.75 39.62 42.10 38.52 42.95 40.69 40.64 38.20 37.77 39.30 34.36 39.99 45.38 45.12 47.55 49.36 49.89 50.12 52.25
50.77 51.15 51.06 49.15 47.50 48.52 50.70 51.43 47.93 31.82 23.28 37.16 41.84 40.52 40.67 43.75 44.26 46.85 46.62 48.49 46.82 41.06 40.94 39.91 44.67 41.45 41.33 43.02 42.60 43.91 40.16 39.95 39.21 36.45 30.44 36.85 36.70 37.37 41.50 45.47 47.52 49.71 50.41 51.34 50.76
50.33 50.29 49.52 50.36 44.11 50.41 50.74 45.91 31.44 23.87 39.32 34.74 35.62 39.37 39.57 38.37 39.88 42.43 40.80 38.46 36.58 33.12 32.25 38.26 39.43 42.55 43.57 38.57 42.02 40.30 35.71 28.86 26.18 27.60 27.52 37.67 36.27 38.68 44.12 47.66 49.08 49.17 50.08 50.94 51.20
49.68 49.35 50.37 52.01 50.24 50.64 48.00 37.44 25.23 34.57 34.58 39.70 38.96 38.77 35.74 37.38 38.16 39.60 38.79 36.06 38.00 37.29 34.18 33.38 31.00 39.44 43.48 40.03 37.11 37.18 35.28 29.26 24.76 24.16 28.49 37.68 33.09 38.19 46.33 48.79 49.26 51.28 50.65 51.24 51.02
48.97 49.11 49.14 48.76 51.29 49.03 42.53 29.45 29.05 34.83 38.38 36.99 37.91 33.78 33.99 36.96 36.97 37.20 35.91 36.94 39.54 39.96 33.32 32.04 33.36 42.52 43.58 43.68 40.94 37.26 34.02 38.89 32.22 34.37 29.18 33.72 38.18 43.73 46.14 47.09 48.92 48.54 50.82 51.40 49.84
45.50 46.43 47.55 50.44 51.19 45.95 38.35 33.66 35.25 41.03 41.01 40.56 31.76 35.63 30.57 33.29 33.82 34.94 34.66 40.86 40.00 41.07 41.16 37.43 30.41 40.28 42.17 43.19 43.10 39.62 41.85 31.66 32.25 25.78 22.92 31.39 33.21 36.66 42.17 44.48 47.48 48.24 47.59 49.57 50.79
45.62 43.73 47.55 50.85 48.81 41.42 33.95 34.07 38.54 43.04 43.66 38.97 35.46 32.92 33.78 32.96 33.74 32.79 34.25 38.34 41.94 39.88 40.82 39.74 34.54 34.39 38.25 37.43 37.01 37.87 35.32 37.59 35.45 32.55 28.16 25.76 32.03 42.54 42.40 45.61 45.95 47.88 48.52 50.76 53.92
44.26 38.97 49.16 49.27 38.46 37.72 33.64 37.91 41.94 42.70 43.78 40.45 40.14 37.49 35.17 35.07 33.38 33.81 34.16 37.63 42.44 41.55 36.29 38.97 33.63 30.02 33.48 40.88 43.06 40.42 37.54 36.63 30.60 27.12 31.75 32.54 30.39 46.40 45.70 46.76 47.38 49.42 51.57 56.00 60.18
41.17 42.71 48.70 47.02 31.60 32.86 37.50 38.70 40.87 41.66 40.31 40.09 37.54 38.99 38.94 36.81 32.30 34.90 35.27 40.89 41.61 39.78 36.82 37.84 31.35 25.11 28.39 37.79 41.67 37.79 39.85 39.59 38.60 38.07 31.39 29.33 31.37 46.05 46.03 46.02 51.44 54.83 57.38 58.56 58.88
42.31 35.45 40.67 41.31 40.23 35.24 34.04 36.01 37.75 42.85 40.69 41.19 39.54 40.26 37.18 33.36 35.88 33.53 33.93 39.17 41.12 40.18 43.75 41.89 33.69 29.91 24.82 29.49 36.56 34.62 37.98 40.96 37.88 31.57 32.66 34.00 37.15 40.84 43.50 45.97 54.48 56.19 57.14 57.86 58.80
41.50 37.06 38.60 31.57 33.78 34.91 36.34 37.58 35.28 34.83 40.76 40.92 37.95 37.16 36.29 31.71 33.56 32.73 35.48 37.08 38.98 40.59 39.40 39.10 33.05 34.11 35.72 38.09 38.24 38.19 38.52 39.58 37.76 38.04 34.36 37.70 38.67 42.72 45.67 44.48 54.49 57.33 58.16 57.90 57.94
37.77 37.29 39.57 35.70 36.89 35.96 36.22 34.97 34.94 36.26 37.34 37.08 35.98 37.18 37.47 33.55 34.48 32.54 35.62 35.88 35.26 37.37 35.97 37.99 33.07 33.56 32.18 36.94 38.28 36.66 40.45 40.87 40.78 39.31 39.66 40.39 39.86 46.46 46.96 47.28 51.82 55.47 56.73 56.44 56.62
43.66 44.56 39.34 36.07 34.95 34.00 34.07 34.62 35.34 38.05 40.07 40.75 38.28 36.68 36.07 38.21 40.10 40.35 40.47 40.08 39.01 36.15 34.38 34.18 32.46 32.02 28.51 35.63 34.60 30.86 37.75 39.05 40.69 42.62 41.61 37.00 42.30 46.68 44.40 42.97 46.66 54.77 54.76 54.03 54.08
MSLP
1020.30 1019.74 1019.17 1018.60 1018.07 1017.63 1017.24 1016.76 1016.26 1015.78 1015.40 1015.11 1014.79 1014.38 1013.86 1013.23 1012.52 1011.79 1010.23 1007.24 1007.17 1007.06 1007.43 1007.67 1007.33 1007.15 1007.41 1007.62 1007.21 1006.71 1006.66 1005.37 1004.45 1003.41 1001.89 1000.12 999.47 998.07 997.44 996.75 996.36 996.55 996.88 997.21 997.91
1020.47 1019.93 1019.38 1018.80 1018.18 1017.53 1016.85 1016.11 1015.55 1015.32 1015.08 1014.75 1014.38 1013.99 1013.60 1013.07 1012.21 1009.77 1005.97 1005.81 1005.80 1006.17 1007.03 1007.25 1007.04 1006.80 1006.96 1006.93 1006.75 1006.21 1005.08 1003.52 1002.68 1002.47 1001.64 1000.46 999.48 998.27 997.77 996.99 996.67 996.55 996.89 997.17 997.99
1020.56 1019.95 1019.31 1018.66 1018.02 1017.41 1016.83 1016.23 1015.72 1015.23 1014.76 1014.34 1014.07 1013.85 1013.58 1013.03 1011.07 1006.25 1004.79 1004.82 1004.77 1005.37 1005.73 1006.01 1006.47 1006.66 1006.54 1006.32 1005.94 1004.66 1002.86 1002.94 1002.30 1002.02 1001.25 1000.54 999.47 998.44 997.89 997.41 996.57 996.76 997.22 997.67 998.32
1020.40 1019.75 1019.07 1018.40 1017.77 1017.12 1016.42 1015.72 1015.22 1014.82 1014.53 1014.26 1014.01 1013.78 1013.46 1013.18 1010.29 1005.44 1005.17 1004.85 1004.55 1004.75 1005.68 1005.83 1006.05 1006.33 1005.96 1005.28 1004.78 1004.03 1002.69 1002.78 1002.17 1001.45 1000.75 1000.11 999.38 998.66 998.27 997.60 996.61 996.43 996.92 997.45 998.21
1020.30 1019.58 1018.80 1018.01 1017.24 1016.35 1015.47 1014.72 1014.49 1014.52 1014.27 1013.98 1013.67 1013.60 1013.41 1012.43 1008.41 1005.33 1005.45 1005.30 1005.12 1005.04 1005.10 1005.41 1005.63 1005.76 1005.35 1004.26 1004.11 1002.85 1002.67 1002.11 1001.72 1001.15 1000.14 1000.02 999.29 998.77 997.81 997.37 996.83 996.49 997.00 997.67 997.85
1020.54 1019.84 1018.98 1018.05 1017.19 1016.33 1015.45 1014.44 1013.85 1013.18 1013.37 1013.54 1013.35 1013.17 1013.35 1011.44 1006.23 1004.82 1005.15 1004.95 1004.75 1004.97 1004.88 1004.95 1004.61 1004.70 1004.32 1003.93 1003.36 1002.29 1002.01 1001.28 1000.90 1000.17 999.68 999.53 999.02 998.75 997.05 997.29 997.07 997.10 997.28 997.73 997.86
1020.20 1019.56 1018.64 1017.79 1016.93 1016.01 1015.14 1014.23 1013.59 1012.79 1012.13 1012.78 1012.60 1013.00 1011.94 1008.64 1005.95 1004.81 1005.41 1004.92 1004.73 1004.36 1004.26 1004.23 1004.33 1004.28 1003.59 1003.75 1002.39 1002.07 1001.70 1001.03 999.59 999.04 998.80 999.43 998.55 996.75 997.64 997.32 997.47 997.47 997.57 997.90 998.02
1019.73 1019.02 1018.05 1017.19 1016.13 1015.22 1014.47 1013.19 1012.32 1011.41 1011.58 1011.88 1012.06 1012.39 1010.88 1007.00 1006.12 1005.66 1004.96 1004.52 1003.67 1003.66 1003.55 1003.30 1003.42 1003.66 1003.49 1003.27 1002.06 1002.31 1001.61 1000.32 998.13 998.73 998.54 999.14 996.25 996.77 997.62 997.77 997.52 997.66 997.95 998.02 998.00
1019.51 1018.49 1017.45 1016.46 1015.31 1014.59 1013.68 1012.29 1010.83 1010.61 1010.46 1011.15 1011.78 1011.81 1008.90 1005.84 1005.40 1004.28 1004.77 1004.70 1003.85 1003.36 1003.05 1002.74 1003.12 1003.50 1003.58 1003.32 1003.33 1001.99 1000.44 999.17 999.05 998.18 998.39 997.81 995.91 996.97 997.28 997.57 997.65 997.79 997.74 998.00 998.00
1019.29 1018.24 1017.10 1016.01 1014.64 1014.10 1013.11 1011.69 1009.81 1009.87 1010.51 1010.74 1010.75 1011.30 1008.62 1005.89 1004.56 1003.73 1003.98 1003.55 1003.31 1003.24 1003.02 1002.89 1003.35 1003.68 1003.24 1002.97 1001.62 1000.42 999.98 999.45 998.79 998.02 997.90 997.37 996.10 996.39 996.28 996.76 996.86 997.29 997.43 997.44 997.46
1019.10 1018.16 1016.93 1015.69 1014.22 1013.05 1013.25 1012.24 1010.11 1009.52 1009.61 1009.63 1009.15 1008.53 1006.91 1005.41 1004.85 1003.66 1002.69 1002.64 1002.72 1003.06 1003.04 1003.33 1003.84 1003.43 1002.21 1002.30 1002.13 1001.72 1000.93 999.79 998.49 998.04 997.46 996.90 996.14 995.51 995.81 995.94 996.10 996.39 996.84 996.80 996.75
1018.80 1017.93 1016.72 1015.59 1014.08 1012.51 1012.29 1011.62 1010.86 1011.08 1009.69 1007.77 1006.65 1006.09 1005.29 1004.36 1004.54 1002.84 1001.96 1002.81 1003.01 1003.11 1003.13 1003.39 1003.12 1002.54 1003.22 1003.27 1002.71 1002.21 1001.37 999.92 998.76 997.83 997.51 996.83 995.80 995.19 995.37 994.71 995.20 995.79 995.91 996.15 996.48
1018.62 1017.80 1016.69 1015.64 1013.90 1012.57 1012.12 1011.10 1010.21 1010.41 1010.40 1007.78 1005.59 1004.70 1004.25 1003.81 1002.91 1002.16 1002.65 1003.27 1003.06 1003.04 1003.29 1003.24 1002.77 1002.63 1002.53 1002.59 1002.54 1001.71 1001.04 1000.20 999.50 998.83 997.91 997.16 995.99 994.68 994.38 993.88 994.11 994.44 995.02 995.18 995.39
1018.32 1017.53 1016.56 1016.08 1013.85 1013.07 1011.80 1010.44 1010.07 1010.34 1010.20 1007.30 1005.51 1004.50 1004.14 1003.65 1002.92 1002.47 1002.25 1002.91 1002.98 1003.05 1003.26 1002.77 1002.29 1002.42 1002.36 1002.23 1002.02 1001.04 1000.89 1000.25 999.77 999.80 998.59 997.16 996.41 994.50 993.89 993.43 993.40 993.67 994.13 994.14 994.61
1018.18 1017.13 1016.52 1015.94 1015.35 1013.43 1011.21 1010.14 1009.80 1010.24 1009.69 1007.12 1006.08 1005.37 1004.76 1004.21 1003.21 1003.57 1003.56 1002.87 1003.11 1003.31 1004.14 1003.09 1002.41 1002.33 1002.14 1001.36 1001.65 1001.17 1001.22 1000.68 1000.44 999.98 999.07 996.98 997.39 994.58 993.37 992.68 992.54 992.72 992.87 993.59 993.92
1018.03 1016.80 1016.60 1014.95 1014.36 1012.27 1010.99 1010.35 1009.95 1010.63 1009.40 1007.71 1007.36 1006.18 1004.84 1003.91 1003.79 1003.70 1003.51 1003.99 1003.85 1003.71 1003.96 1003.48 1002.71 1002.07 1001.48 1001.42 1001.89 1002.06 1001.33 1000.87 1000.71 1000.65 998.79 997.30 996.74 994.67 993.13 991.96 991.70 991.82 992.22 992.75 993.44
1017.46 1016.09 1015.54 1015.05 1013.58 1011.58 1010.88 1010.72 1010.64 1010.45 1009.99 1008.94 1007.63 1007.10 1005.66 1005.28 1004.71 1004.28 1004.71 1005.91 1005.81 1005.52 1004.40 1003.47 1002.23 1001.59 1001.58 1001.31 1001.26 1001.60 1001.99 1002.39 1001.52 1000.14 998.75 997.51 995.76 994.45 992.46 991.75 990.67 990.70 991.59 992.40 993.05
1016.95 1015.33 1013.50 1012.96 1012.11 1011.29 1010.77 1011.00 1011.32 1010.96 1010.39 1009.65 1008.72 1008.05 1007.25 1007.07 1006.10 1005.84 1005.51 1006.25 1006.67 1006.44 1005.41 1004.40 1002.31 1001.76 1001.23 1001.02 1001.10 1000.86 1001.32 1001.88 1001.42 1000.22 999.13 997.23 994.77 993.22 991.98 991.04 990.59 990.57 991.29 991.92 992.58
1016.91 1014.65 1013.44 1011.99 1011.53 1011.33 1011.78 1011.79 1012.04 1011.33 1010.27 1009.28 1008.78 1008.33 1008.33 1008.15 1008.13 1007.07 1006.44 1005.99 1005.89 1006.17 1005.64 1004.10 1002.58 1001.60 1001.07 1000.86 1001.68 1001.03 1000.22 1000.43 1001.36 1001.33 1000.46 997.49 995.31 993.62 992.01 991.17 991.07 991.34 991.04 991.79 992.49
1017.37 1015.37 1013.10 1011.38 1011.07 1011.49 1012.31 1012.51 1011.89 1010.94 1010.06 1009.57 1009.45 1009.34 1008.83 1008.74 1008.70 1008.34 1007.14 1005.29 1005.32 1005.32 1005.35 1004.27 1002.84 1001.43 1001.17 1000.61 1000.17 1000.67 1000.01 1000.41 1000.85 1001.35 1000.53 998.09 995.90 993.95 992.22 991.40 990.90 990.84 991.08 991.41 992.25
1016.65 1014.72 1011.88 1010.96 1010.83 1011.86 1012.51 1012.25 1011.37 1010.33 1009.64 1009.80 1009.69 1009.60 1009.89 1009.80 1009.76 1009.04 1007.53 1005.97 1005.10 1004.89 1004.93 1004.43 1003.90 1002.24 1001.64 1000.59 1000.42 1000.30 999.81 1000.01 1001.49 1000.79 1000.22 998.73 996.26 994.88 993.60 992.58 991.43 990.98 990.72 991.03 992.96
1017.76 1015.22 1012.21 1011.36 1012.33 1013.06 1013.22 1012.84 1011.53 1010.24 1010.02 1010.09 1009.80 1010.38 1010.56 1010.64 1009.67 1009.04 1007.36 1006.65 1005.76 1005.99 1005.58 1005.08 1004.49 1003.21 1001.79 1000.53 1000.35 1000.06 999.69 1000.75 1000.64 1000.37 999.69 998.58 996.45 995.33 994.61 993.28 992.17 991.50 990.89 991.75 993.13
1018.89 1015.54 1012.67 1012.56 1014.08 1014.70 1014.23 1013.19 1012.20 1010.67 1010.26 1010.07 1010.81 1011.11 1011.17 1010.80 1010.35 1009.13 1007.60 1006.40 1006.34 1006.45 1006.37 1005.79 1004.83 1003.73 1001.43 1000.93 1000.39 1000.06 999.98 999.22 999.86 999.65 998.71 997.88 996.18 995.20 995.49 994.53 991.94 991.26 992.36 992.80 993.66
1019.50 1016.47 1015.17 1015.02 1015.52 1015.92 1015.20 1013.50 1011.94 1011.22 1010.85 1010.69 1010.57 1010.93 1011.41 1010.98 1010.53 1008.88 1007.80 1007.02 1006.81 1006.49 1006.03 1005.42 1004.73 1004.01 1002.65 1000.95 1000.44 999.95 998.86 997.83 998.35 998.69 997.75 997.05 997.16 997.02 996.74 996.29 993.49 992.53 993.45 993.34 993.83
1019.63 1018.61 1018.50 1017.56 1016.90 1016.58 1015.62 1014.09 1012.52 1011.79 1011.22 1010.92 1010.83 1011.38 1011.26 1010.12 1009.23 1008.29 1007.82 1006.94 1006.72 1005.90 1005.82 1005.44 1004.39 1003.50 1002.25 1001.14 999.82 998.50 997.74 997.12 997.11 996.92 997.21 997.34 997.45 997.48 997.62 997.20 994.77 993.80 994.48 994.54 995.23
1020.98 1020.87 1020.30 1019.53 1018.39 1016.86 1015.55 1014.40 1013.59 1012.05 1011.86 1011.47 1011.58 1010.96 1010.64 1010.12 1009.51 1007.39 1007.56 1007.00 1006.60 1006.42 1006.20 1005.67 1004.74 1003.75 1001.57 1000.15 998.91 997.68 995.98 995.58 996.01 996.69 996.71 996.99 997.97 998.63 999.01 997.77 996.47 995.62 994.80 996.05 996.63
1021.94 1021.51 1021.00 1019.53 1018.44 1017.46 1016.04 1015.68 1014.39 1013.25 1011.73 1011.35 1011.03 1010.17 1009.55 1008.87 1008.05 1006.77 1006.34 1005.92 1006.17 1006.16 1006.23 1006.34 1005.66 1004.19 1001.65 999.83 998.30 996.30 994.24 994.64 995.00 995.11 994.92 996.15 997.02 998.54 998.87 998.30 996.41 995.09 995.84 997.20 998.63
Wind_Speed
23 23 24 25 24 23 22 22 22 22 22 21 20 21 22 24 24 16 16 17 14 27 16 10 10 9 8 6 8 6 5 13 20 20 15 12 6 9 7 14 3 2 4 1 21
23 23 23 23 24 24 25 26 26 24 22 22 22 21 22 23 20 20 20 18 22 17 11 12 10 12 6 10 6 9 12 23 15 11 11 14 12 15 2 3 2 4 5 11 22
23 23 23 24 24 24 24 24 23 23 23 23 22 21 20 18 10 8 6 8 17 17 15 11 10 11 13 8 9 5 25 15 9 19 21 21 21 13 11 4 6 8 5 8 6
25 26 26 26 26 26 27 27 26 24 22 21 20 18 16 10 8 4 4 7 3 12 12 12 10 6 5 16 15 14 19 19 15 17 16 11 8 12 7 8 12 12 7 7 8
27 28 29 28 29 30 31 31 27 25 23 22 19 13 7 5 17 11 10 3 3 6 16 15 12 10 10 7 14 25 13 13 20 23 26 19 18 15 19 9 3 9 7 9 8
24 25 26 28 28 29 30 32 31 32 25 20 16 9 6 15 10 14 13 18 11 9 10 11 8 15 7 16 20 8 14 21 21 22 24 24 15 9 21 8 4 5 5 1 8
24 24 27 27 28 29 28 30 29 29 30 20 14 8 12 28 11 26 21 13 11 12 13 14 14 14 7 13 16 16 20 19 24 25 22 11 21 30 10 8 7 6 8 7 6
26 26 28 29 30 30 28 28 28 27 25 19 9 5 11 12 15 17 14 18 9 9 16 13 11 17 17 10 19 9 11 20 25 20 15 12 30 21 11 8 10 9 8 8 10
27 29 30 30 31 29 28 30 30 20 10 5 4 5 12 14 6 9 8 9 15 15 14 10 6 8 12 16 11 9 20 23 17 12 16 18 31 12 10 15 11 9 10 10 10
27 29 30 31 32 27 27 28 24 5 3 10 2 2 7 12 21 22 20 17 12 10 12 9 5 6 6 9 22 22 22 16 17 13 12 17 24 17 15 17 17 15 11 11 11
29 30 31 31 31 31 14 8 12 4 9 8 15 16 23 24 21 20 19 13 9 12 12 10 9 16 23 19 19 17 13 15 18 16 11 16 27 21 15 15 12 18 17 15 17
30 30 31 32 35 33 8 11 10 2 12 18 16 15 19 12 12 13 14 14 6 14 11 7 14 21 19 16 20 22 22 23 18 14 17 23 24 15 15 21 18 11 21 18 19
30 30 30 30 33 13 13 11 7 9 3 13 11 5 13 14 17 15 10 10 14 12 15 15 20 18 19 20 22 24 23 23 23 20 21 17 18 24 14 19 20 18 12 20 22
32 30 30 28 11 14 8 10 4 7 2 6 14 8 14 17 5 12 13 5 14 12 15 16 18 14 18 20 20 23 19 20 20 21 20 17 14 16 22 17 20 21 11 22 21
33 32 29 21 7 5 10 11 6 4 6 18 12 14 22 8 11 20 9 7 13 10 5 8 12 17 20 20 18 20 20 23 22 19 16 29 7 13 16 21 19 20 16 12 19
33 33 26 8 6 11 10 16 6 3 6 12 17 23 21 15 16 6 15 3 7 3 8 17 17 6 14 22 16 16 12 19 17 12 18 22 16 15 16 21 19 20 17 13 9
34 34 22 6 6 12 11 7 4 6 15 14 28 26 20 21 20 18 13 14 5 7 3 10 19 14 16 16 14 11 10 1 6 14 12 20 18 17 15 17 23 24 17 11 11
37 32 9 6 6 10 11 3 4 12 12 16 19 18 13 22 17 20 17 2 4 4 3 4 6 3 9 10 11 11 13 7 7 11 15 19 17 12 25 24 7 16 14 11 14
32 5 6 2 6 5 5 5 4 14 16 16 16 12 12 18 15 14 17 2 4 6 14 5 4 11 14 9 3 4 21 15 13 15 6 12 14 9 21 23 20 11 16 18 10
9 4 5 5 5 3 2 2 6 16 15 15 12 11 21 16 13 16 9 10 17 17 16 5 10 5 1 7 14 16 8 9 4 6 11 8 7 15 15 22 20 15 11 13 15
3 4 1 6 2 1 2 3 15 15 12 13 18 16 11 12 14 17 10 18 14 22 9 8 2 6 8 6 4 4 7 8 4 6 4 4 11 11 10 16 20 17 12 18 15
6 5 7 6 5 4 6 14 19 21 10 10 8 10 10 18 16 15 10 11 17 15 10 5 4 7 13 16 11 7 10 7 6 6 6 6 12 7 10 18 12 12 11 20 26
7 5 1 7 4 5 10 15 19 19 15 16 9 11 16 9 10 10 14 14 20 13 5 3 4 6 8 3 4 3 10 9 9 4 10 9 6 5 12 24 18 16 24 24 29
5 5 6 5 8 10 12 15 15 14 17 17 15 9 8 14 11 12 20 9 20 17 21 7 5 11 9 10 7 7 14 12 12 5 8 9 8 12 14 20 9 22 23 26 30
3 4 5 6 9 16 17 15 20 20 12 13 4 6 17 10 18 7 15 19 13 9 4 3 5 9 16 19 20 20 18 12 8 12 7 7 7 5 8 11 11 20 23 24 28
4 4 4 11 12 14 15 15 16 23 22 10 12 21 18 12 15 24 20 15 6 5 7 6 5 13 17 19 18 16 12 16 11 16 24 9 3 8 0 9 6 18 27 22 25
3 3 2 6 9 11 9 20 21 21 9 18 18 21 17 13 22 26 22 20 13 7 3 3 4 5 7 13 17 10 15 14 12 5 7 5 7 5 9 3 27 20 25 28 26
Wind_Direction
351 347 344 341 338 334 329 326 324 324 323 322 321 322 322 321 312 298 250 224 197 234 263 286 286 239 187 233 249 249 235 240 238 238 241 287 280 274 233 233 120 83 99 177 146
348 344 340 337 333 330 327 325 324 321 319 317 319 321 322 321 306 271 243 232 228 212 204 212 237 244 182 199 241 198 218 231 232 249 257 266 272 275 254 167 132 71 52 106 136
348 344 339 335 330 325 321 316 313 311 312 315 317 319 322 321 300 255 33 241 237 217 215 218 223 252 208 219 203 241 233 240 244 237 260 267 279 289 307 256 180 164 179 177 153
346 342 338 333 328 324 320 317 315 313 313 314 313 313 317 315 280 73 82 67 64 186 200 227 217 222 221 220 212 246 244 247 259 270 273 268 300 298 310 239 204 175 167 211 160
343 340 335 331 327 324 321 316 311 313 313 314 311 310 321 257 245 261 249 108 153 194 202 212 211 211 214 223 241 228 240 243 239 250 263 271 269 273 278 276 230 168 172 211 201
335 332 327 322 319 316 313 309 313 311 307 309 301 284 257 262 266 271 345 326 214 194 213 208 222 212 256 229 245 271 243 238 240 242 240 252 264 255 264 267 253 248 200 220 175
332 329 323 320 317 313 308 305 303 298 301 305 298 254 258 245 302 307 308 287 237 198 221 215 230 256 220 271 245 250 256 267 254 240 247 232 251 242 251 271 217 249 231 189 196
332 328 323 323 319 316 315 306 299 288 289 291 291 247 258 260 257 280 289 301 268 260 239 254 231 236 248 274 292 284 264 246 247 244 244 210 248 242 241 245 233 227 238 195 212
333 330 327 326 321 322 321 313 301 303 273 189 175 209 265 311 237 263 220 255 278 280 267 250 283 262 258 234 264 248 243 238 248 229 229 219 244 228 212 221 232 227 218 216 216
333 330 328 327 322 325 321 309 292 303 120 175 219 194 265 303 307 309 293 294 237 247 282 273 258 261 255 222 218 226 234 244 250 232 227 240 259 243 200 211 220 217 213 210 224
335 333 330 329 324 319 330 320 1 330 330 296 281 242 273 272 279 291 290 297 291 273 233 223 224 226 234 237 261 271 248 252 242 248 254 232 244 243 212 214 223 211 211 212 221
335 336 333 332 325 320 302 0 357 345 318 315 278 249 246 251 275 298 328 246 240 257 255 250 249 231 242 255 260 261 263 271 275 266 232 244 251 250 217 212 221 211 208 208 217
334 336 334 334 321 317 320 344 347 39 292 291 324 342 322 324 313 314 342 325 291 245 253 252 251 258 234 234 243 252 242 252 259 275 281 273 263 249 230 217 210 223 201 208 208
332 334 333 342 323 330 319 323 355 70 314 348 357 14 342 340 6 296 284 277 279 219 232 250 232 261 278 264 244 253 259 263 255 244 255 256 261 264 227 223 210 209 196 211 206
330 330 333 330 271 285 328 318 315 59 2 342 358 352 318 348 318 13 329 291 283 309 56 277 223 233 249 264 255 268 266 254 262 265 260 256 247 266 239 213 205 196 211 196 209
329 326 334 315 300 266 323 313 304 32 325 328 347 335 329 1 5 342 13 37 344 285 199 256 284 289 242 257 267 283 301 274 274 266 255 247 229 247 252 211 198 196 211 211 199
328 322 321 287 250 300 316 320 348 63 332 334 330 342 321 3 346 359 33 27 312 341 288 293 262 253 259 252 238 240 219 279 255 235 238 238 244 226 234 249 194 198 207 205 197
328 315 275 242 268 322 314 319 354 359 326 329 331 335 337 4 345 337 345 39 268 214 278 268 305 45 347 246 229 241 213 185 239 224 241 239 233 217 232 249 253 184 200 189 195
325 308 281 272 293 336 338 36 342 327 323 324 330 324 318 336 334 324 325 218 232 213 4 305 276 288 279 275 184 275 252 222 216 256 302 246 244 268 232 242 251 216 201 199 189
318 289 266 269 293 349 42 221 318 310 309 311 330 321 323 335 331 338 314 281 345 29 340 292 302 273 348 15 302 230 267 228 156 222 229 236 267 228 257 230 234 237 199 186 171
269 291 260 326 356 343 177 327 307 305 331 349 328 309 308 329 320 310 273 302 317 353 325 326 278 292 337 199 235 315 232 240 314 173 217 246 236 244 261 282 233 238 225 179 122
317 307 352 26 24 345 1 314 312 324 5 345 302 3 320 319 299 295 272 305 328 10 335 332 261 271 263 273 282 273 267 262 230 255 218 154 249 297 323 326 289 231 245 128 120
307 267 359 19 32 350 316 320 314 331 360 347 330 321 304 322 324 314 290 320 312 349 332 309 298 313 307 161 117 260 264 237 234 269 226 206 253 194 335 329 293 115 117 122 117
291 318 359 343 26 354 319 303 321 345 330 342 304 319 330 313 300 285 290 318 336 319 307 320 222 221 239 265 291 266 268 250 195 217 241 227 292 313 318 324 122 115 121 124 120
323 2 41 319 327 311 299 291 338 335 334 354 308 322 314 297 304 258 308 305 313 309 312 258 262 260 260 272 280 280 258 275 220 221 223 203 234 269 275 291 160 120 119 116 115
353 353 331 302 298 305 317 356 328 325 334 338 319 315 312 297 282 295 304 300 275 307 331 355 286 314 292 279 270 298 253 250 220 187 237 140 349 229 17 216 224 133 118 112 111
351 312 247 278 309 326 328 330 307 331 322 327 328 317 309 298 302 286 275 269 247 228 234 257 287 317 270 326 309 278 241 225 229 252 212 154 174 254 65 33 290 142 106 106 103